Location: Durkee
(44.1305°N, 107.9134°W)
Time: 15:57:33
(UTC+00:00)

X-37B - Visible Passes

Search period start: 22 January 2022 00:00
Search period end: 01 February 2022 00:00
Orbit: 334 x 337 km, 45.0° (Epoch: 11 January)

Date Brightness Start Highest point End Pass type
(mag) Time Alt. Az. Time Alt. Az. Time Alt. Az.
26 Jan 2.9 02:06:55 10° SSW 02:07:37 14° S 02:07:37 14° S visible
27 Jan 3.1 02:26:39 10° SW 02:27:26 16° SW 02:27:26 16° SW visible
28 Jan 2.1 01:12:22 10° SSW 01:14:32 20° SSE 01:15:56 14° ESE visible
28 Jan 3.8 02:46:54 10° WSW 02:47:10 12° WSW 02:47:10 12° WSW visible
29 Jan 1.0 01:32:05 10° SW 01:34:47 42° SSE 01:35:38 31° ESE visible
30 Jan 0.1 01:52:20 10° WSW 01:55:10 79° S 01:55:16 77° SE visible
31 Jan 1.4 02:12:48 10° W 02:14:53 43° WNW 02:14:53 43° WNW visible
